Regional Weather Roundup
Issued by NWS

Home | Current Version | Previous Version | Graphics & Text | Print | Product List | Glossary Off
Versions: 1 2 3 4 5 6 7 8 9 10 11 12 13 14 15 16 17 18 19 20 21 22 23 24 25 26 27 28 29 30 31 32 33 34 35 36 37 38 39 40 41 42 43 44 45 46 47 48 49 50

000
ASUS43 KTOP 060108
RWRKS

WEATHER ROUNDUP FOR KANSAS
NATIONAL WEATHER SERVICE GOODLAND KS
800 PM CDT TUE MAY 05 2015

NOTE:  "FAIR" INDICATES FEW OR NO CLOUDS BELOW 12,000 FEET WITH NO
SIGNIFICANT WEATHER AND/OR OBSTRUCTIONS TO VISIBILITY.

KSZ001>006-013>018-027>032-041>047-060200-
NORTHWEST KANSAS

CITY           SKY/WX    TMP DP  RH WIND       PRES   REMARKS
GOODLAND       LGT RAIN  56  55  97 SE20      29.78F FOG
HAYS           CLOUDY    61  54  77 SE22      29.86F
HILL CITY      RAIN      59  58  96 SE12G22   29.84F FOG
RUSSELL        CLOUDY    61  58  90 SE18G28   29.87F
$$

KSZ061>065-074>080-084>089-060200-
SOUTHWEST KANSAS

CITY           SKY/WX    TMP DP  RH WIND       PRES   REMARKS
DODGE CITY     CLOUDY    61  57  87 SE20G30   29.83S
ELKHART          N/A     60  51  72 S10         N/A
GARDEN CITY    PTCLDY    61  58  90 SE20G28   29.78S
GREAT BEND     CLOUDY    63  57  82 SE18      29.87F
LIBERAL        PTCLDY    64  57  77 SE16      29.80R
PRATT          CLOUDY    63  59  88 S15G23    29.90S
$$

KSZ066>073-081>083-090>101-060200-
SOUTHEAST KANSAS

CITY           SKY/WX    TMP DP  RH WIND       PRES   REMARKS
CHANUTE        CLOUDY    68  65  90 SE6       29.99R
COFFEYVILLE    LGT RAIN  69  66  90 SE7       29.98R FOG
HUTCHINSON     CLOUDY    64  59  83 SE14      29.91F
MEDICINE LODGE   N/A     64  61  90 S10G21    29.88F
NEWTON         CLOUDY    63  55  77 S9        29.95F
PARSONS        CLOUDY    68  66  93 CALM      29.99S
WICHITA INTL   CLOUDY    65  60  84 SE14      29.90F
WICHITA JABRA  CLOUDY    64  59  83 SE17G24   29.92F
WICHITA MCCONL CLOUDY    64  60  87 SE10      29.91F
WINFIELD       LGT RAIN  64  61  90 SE15      29.94F
$$

KSZ007>012-019>026-033>040-048>060-102>105-060200-
NORTHEAST KANSAS

CITY           SKY/WX    TMP DP  RH WIND       PRES   REMARKS
CONCORDIA      LGT RAIN  68  54  60 S12       29.92R
EMPORIA        CLOUDY    69  60  73 SE12      29.96R
LAWRENCE       CLOUDY    65  61  87 SE3       30.00F
MANHATTAN      CLOUDY    72  61  68 SE14      29.93R
MARYSVILLE     LGT RAIN  66  61  82 SE8G23    29.94R
OLATHE IND     TSTM      65  63  93 CALM      30.04R FOG
OLATHE EXE     TSTM      70  64  81 W8        30.02R
SALINA         LGT RAIN  67  56  67 S13       29.92R
TOPEKA BILLARD CLOUDY    65  62  90 E8        29.98F
TOPEKA FORBES  CLOUDY    66  61  84 SE10      29.97F
$$


USA.gov is the U.S. government's official web portal to all federal, state and local government web resources and services.